Location: Gorze? G�rny
(49.8500°N, 19.5000°E)
Time: 05:16:32
(UTC+00:00)

Cosmos 1898 Rocket - Pass Details

Date: 13 May 2021
Orbit: 753 x 784 km, 74.0° (Epoch: 20 June)

Event Time Altitude Azimuth Distance (km) Brightness Sun altitude
Exits shadow 21:33:31 15° 225° (SW) 2,008 5.4 -20.1°
Maximum altitude 21:37:49 53° 299° (WNW) 964 4.2 -20.2°
Drops below altitude 10° 21:43:03 10° 17° (NNE) 2,352 6.9 -20.5°
Sets 21:45:31 0° 22° (NNE) 3,285 7.7 -20.5°
